Regional Weather Roundup
Issued by NWS

Home | Current Version | Previous Version | Graphics & Text | Print | Product List | Glossary On
Versions: 1 2 3 4 5 6 7 8 9 10 11 12 13 14 15 16 17 18 19 20 21 22 23 24 25 26 27 28 29 30 31 32 33 34 35 36 37 38 39 40 41 42 43 44 45 46 47 48 49 50
000
ASUS45 KCYS 272210
RWRWY

WYOMING REGIONAL WEATHER ROUNDUP
NATIONAL WEATHER SERVICE CHEYENNE WY
400 PM MDT TUE SEP 27 2016

NOTE:  "FAIR" INDICATES FEW OR NO CLOUDS BELOW 12,000 FEET
WITH NO SIGNIFICANT WEATHER AND/OR OBSTRUCTIONS TO VISIBILITY.

WYZ001-272300-
YELLOWSTONE NATIONAL PARK

CITY           SKY/WX    TMP DP  RH WIND       PRES   REMARKS
LK YELLOWSTONE   N/A     64  45  49 VRB3      30.35S
W YELLOWSTONE  NOT AVBL

$$
WYZ002>013-054>058-071-098>099-272300-
NORTHERN WYOMING

CITY           SKY/WX    TMP DP  RH WIND       PRES   REMARKS
JACKSON        SUNNY     73  34  23 CALM      30.21
CODY           FAIR      77  43  29 E9        30.14S
GREYBULL       FAIR      76  45  33 S3        30.07F
WORLAND        FAIR      79  42  26 CALM      30.09F
SHERIDAN       FAIR      82  43  25 NW12      30.06S
BUFFALO        FAIR      80  36  20 N10       30.13S
GILLETTE       FAIR      79  40  24 NW12      30.08S
HULETT         FAIR      79  37  22 NW8       30.08S
NEWCASTLE      FAIR      79  32  18 NW15G21   30.08R

$$
WYZ014>020-022>026-101>103-272300-
CENTRAL WYOMING

CITY           SKY/WX    TMP DP  RH WIND       PRES   REMARKS
BIG PINEY      FAIR      73  35  25 W6        30.27F
PINEDALE       FAIR      72  19  14 N7        30.27F
DUBOIS         FAIR      72  25  17 NW14      30.25S
LANDER         FAIR      76  35  22 NE7       30.17F
RIVERTON       FAIR      72  43  35 E7        30.18F
CASPER         FAIR      79  33  19 W9G17     30.14F
DOUGLAS        FAIR      81  31  16 NW14      30.12F

$$
WYZ021-027>030-104>119-272300-
SOUTHERN WYOMING

CITY           SKY/WX    TMP DP  RH WIND       PRES   REMARKS
EVANSTON       FAIR      73  30  20 N6        30.28F
FORT BRIDGER   FAIR      73  29  20 NW6       30.32S
ROCK SPRINGS   FAIR      70  35  27 VRB5      30.27F
DIXON          FAIR      73  35  25 W6        30.28F
RAWLINS        FAIR      73  32  22 SW10      30.26F
SARATOGA       FAIR      73  32  21 N13G18    30.28S
LARAMIE        FAIR      72  26  18 N10       30.27S
CHEYENNE       FAIR      78  19  11 N8        30.18F
TORRINGTON     FAIR      85  21   9 W6        30.05F
PINE BLUFFS    FAIR      81  23  12 N7        30.12S

$$



USA.gov is the U.S. government's official web portal to all federal, state and local government web resources and services.